COSMOS 2454

Satellite information

Favourite Embed

Satellite Type and Status

PAYLOADIN ORBIT

Key statistics

Satellite COSMOS 2454 at a glance.

Uptime

5992

Days in orbit

Revolutions

≈ 13.9

Per day

Orbit

LEO

Low Earth Orbit

Inclination

83.0

Latest

Satellite identification and parameters

Extended collection of information and parameters for COSMOS 2454.

Object identification

Identified? True

Debris? False

Object name: COSMOS 2454

International designator: 2009-039A

Object number (NORAD): 35635

Object ID (CCSDS): 35635

Country: COMMONWEALTH OF INDEPENDENT STATES (CIS)

Current information (Y/N): Y

RCS size: LARGE

Orbital parameters

Period: 103.602 minutes

Inclination: 82.9553 deg

SMA: 7307.017 km

Apoapsis: 943.797 km

Periapsis: 913.967 km

RAAN: 167.6466 deg

Eccentricy: 0.00204119

Argument of periapsis: 70.2055 deg

Mean anomaly: 48.1896 deg

Mean motion: 13.8992887 rev/day

Mean motion (dot): 0.00000113 rev/day2

B* drag term: 0.000078695816 1/REarth

Two-line elements (TLE)

Creation date: Dec. 14, 2025, 6:24 p.m.

Reference frame: TEME

Reference center: EARTH

Epoch: Dec. 14, 2025, 1:21 a.m. UTC

TLE line 0: 0 COSMOS 2454

TLE line 1: 1 35635U 09039A 25348.05674425 .00000113 00000-0 78696-4 0 9993

TLE line 2: 2 35635 82.9553 167.6466 0020412 70.2055 48.1896 13.89928870831687

Live tracking on map

Real-time ground track for satellite COSMOS 2454.

In-orbit conjunctions

There are no conjunctions computed for COSMOS 2454, at the moment. Check back to stay up to date, as we update our databases every day.

Go to all conjunctions

Associated space launch

Navigation satellite providing location information for the Tsiklon-B navigation system

COSMOS 2454 was lifted into orbit during the mission ‘Kosmos-3M | Parus 98’, on board a Kosmos-3M space rocket.

The launch took place on July 21, 2009, 3:57 a.m. from 132/1 (132L).

For more information about the launch, click the button.

Launch to space Kosmos-3M | Parus 98
Kosmos-3M | Parus 98

Agency: N/A

Status: Launch Successful

Launch date: July 21, 2009, 3:57 a.m. UTC

Rocket: Kosmos-3M

Launch pad: 132/1 (132L)

Location: Plesetsk Cosmodrome, Russian Federation

...

Latest news about this satellite

There are no fresh news available about this satellite. Check back as we update our databases every day.


Newsletter sign-up

Weekly statistics, charts and insights to help you stay on top of the space industry.